GORIZONT 1 [-]

Last updated on Jan. 22, 2020, 4:37 a.m. UTC

1 11158U 78118A   20021.02410885 -.00000141  00000-0  00000+0 0  9990
2 11158  12.5211 239.8936 3588832 233.8387  87.3058  1.00307547 99467
UTC
Height (km)
Latitude
Longitude
Inclination
Orbital Period
UTC large
Height (km)
Speed (km/s)
/
Latitude / Longitude
Inclination (degrees)
Orbital Period (minutes)
Azimuth
Elevation
Range (km)
Doppler Factor
iOS Compass Heading
iOS Angle

Next 30 passes for location: Hong Kong

Rise time Rise Azimuth (degrees) Set time Set Azimuth (degrees) Duration Max altitude (degrees)

No matching passes for this satellites